Погода в Горностаевке

Россия / Орловская область     52°23′16″N   37°32′58″E
темп.,
°C
ветер,
м/с
пор.,
м/с
влажн.,
%
обл.,
%
осадки,
мм/ч
давл.,
гПа
погр.,
м
13 апреля, вт
вт1300:00+12вюв4126999 0.0 1024229
03:00+10вюв3776100 0.0 1024113
06:00+9вюв4877100 0.0 1024144
09:00+13юв5115985 0.0 1024407
12:00+18юв7104099 0.0 10231182
15:00+20юв7102946 0.0 10221790
18:00+18юв6103918 0.0 1021416
21:00+14юв4105575 0.0 1021196
14 апреля, ср
ср1400:00+12юв4115791 0.0 1021232
03:00+10вюв3369100 0.0 102147
06:00+9вюв356929 0.0 102079
09:00+13юв57518 0.0 1019395
12:00+18юв67385 0.0 10181040
15:00+19юв6832100 0.0 10161923
18:00+17ююв4742100 0.0 1016343
21:00+12зсз237598 0.0 101753
15 апреля, чт
чт1500:00+11с227984 0.0 101618
03:00+10с2281100 0.0 101625
06:00+10ссз1176100 0.0 101513
09:00+13св3360100 0.0 1015209
12:00+16юв3447100 0.0 1014871
15:00+17ю464896 0.2 10131470
18:00+16ююз355642 0.4 1013439
21:00+11сз117741 0.8 101410
16 апреля, пт
пт1600:00+11ююв1179100 0.0 101318
03:00+10вюв22858 0.0 101413
06:00+9в3586100 0.0 101478
09:00+11всв3580100 1.6 1015264
12:00+12в237796 2.4 1015353
15:00+15в356088 2.5 1015672
18:00+15ю346399 0.2 1015202
21:00+11с118379 1.1 101612
17 апреля, сб
сб1700:00+10ссв3588100 0.1 1017108
03:00+10св5109199 0.6 1017296
06:00+9всв6129399 0.8 1018455
09:00+10всв71284100 1.1 1019677
12:00+11всв91375100 0.0 10201029
15:00+12всв9137181 0.0 10201054
18:00+11всв61268100 0.0 10221175
21:00+10всв8135598 0.1 1024830